AFR460 LFPG-SBGR

Flight info

Callsign AFR460
Flight time N/A
Altitude 35000
Route ERIXU DCT ARKIP DCT BALAN DCT FOUCO DCT OSMOB DCT BIDAC DCT ARVID T424 PPN N10 NOLSA N857 KORNO UN857 ABODA/N0487F370 UN857 TERTO N857 LZR N871 GDV N873 ODEGI/N0489F380 N873 IPERA UN873 TASIL/N0485F400 UN873 NTL DCT OPTUR DCT ASGIK UZ21 VUNOX
Aircraft A359/H-SDE2E3GHIJ3J4J5LM1ORWXY/LB1D1

Departure

Time 2026-04-30 21:22
Airport Charles de Gaulle International Airport (LFPG)

Arrival

Time N/A
Airport São Paulo/Guarulhos–Governor André Franco Montoro International Airport (SBGR)
Time Latitude Longitude Altitude Speed Heading
2026-04-30 20:54 49.00367 2.58616 361 ft 0 kts 265°
2026-04-30 21:08 49.00367 2.58622 361 ft 2 kts 264°
2026-04-30 21:08 49.00369 2.58647 361 ft 2 kts 265°
2026-04-30 21:09 49.00370 2.58671 367 ft 2 kts 265°
2026-04-30 21:09 49.00371 2.58696 364 ft 2 kts 266°
2026-04-30 21:09 49.00374 2.58720 366 ft 2 kts 223°
2026-04-30 21:09 49.00389 2.58730 366 ft 2 kts 187°
2026-04-30 21:10 49.00405 2.58731 367 ft 2 kts 176°
2026-04-30 21:10 49.00416 2.58729 365 ft 0 kts 180°
2026-04-30 21:13 49.00409 2.58730 365 ft 6 kts 176°
2026-04-30 21:13 49.00352 2.58738 369 ft 10 kts 175°
2026-04-30 21:13 49.00283 2.58747 361 ft 10 kts 176°
2026-04-30 21:13 49.00207 2.58752 362 ft 12 kts 178°
2026-04-30 21:14 49.00114 2.58769 368 ft 15 kts 173°
2026-04-30 21:14 49.00039 2.58716 363 ft 12 kts 243°
2026-04-30 21:14 49.00025 2.58580 360 ft 14 kts 266°
2026-04-30 21:14 49.00019 2.58412 366 ft 18 kts 267°
2026-04-30 21:15 49.00014 2.58211 366 ft 21 kts 267°
2026-04-30 21:15 48.99992 2.57998 366 ft 20 kts 267°
2026-04-30 21:15 48.99984 2.57781 366 ft 21 kts 266°
2026-04-30 21:15 48.99975 2.57589 367 ft 17 kts 266°
2026-04-30 21:16 48.99963 2.57402 362 ft 19 kts 265°
2026-04-30 21:16 48.99952 2.57221 365 ft 18 kts 265°
2026-04-30 21:16 48.99943 2.57048 366 ft 17 kts 265°
2026-04-30 21:16 48.99933 2.56853 360 ft 20 kts 264°
2026-04-30 21:17 48.99921 2.56642 364 ft 21 kts 266°
2026-04-30 21:17 48.99911 2.56449 365 ft 15 kts 265°
2026-04-30 21:17 48.99901 2.56274 367 ft 15 kts 265°
2026-04-30 21:17 48.99895 2.56116 360 ft 13 kts 266°
2026-04-30 21:18 48.99890 2.55970 363 ft 14 kts 274°
2026-04-30 21:18 48.99891 2.55828 361 ft 11 kts 251°
2026-04-30 21:18 48.99855 2.55795 369 ft 6 kts 180°
2026-04-30 21:18 48.99805 2.55801 367 ft 9 kts 175°
2026-04-30 21:19 48.99739 2.55807 365 ft 8 kts 175°
2026-04-30 21:19 48.99711 2.55810 363 ft 0 kts 176°
2026-04-30 21:20 48.99689 2.55813 364 ft 6 kts 176°
2026-04-30 21:20 48.99637 2.55823 367 ft 8 kts 162°
2026-04-30 21:20 48.99608 2.55893 366 ft 9 kts 100°
2026-04-30 21:21 48.99607 2.55931 366 ft 0 kts 86°
2026-04-30 21:21 48.99609 2.55962 360 ft 20 kts 86°
2026-04-30 21:22 48.99640 2.56578 369 ft 96 kts 85°
2026-04-30 21:22 48.99878 2.61682 1724 ft 182 kts 88°
2026-04-30 21:23 48.99992 2.63610 2533 ft 187 kts 89°
2026-04-30 21:23 49.00107 2.65670 3044 ft 204 kts 90°
2026-04-30 21:23 49.00355 2.70367 4024 ft 243 kts 89°
2026-04-30 21:24 49.00497 2.73012 4530 ft 262 kts 87°
2026-04-30 21:24 49.00639 2.75843 5228 ft 274 kts 87°
2026-04-30 21:24 49.00545 2.78766 6088 ft 279 kts 98°
2026-04-30 21:24 49.00269 2.81673 7115 ft 278 kts 99°
2026-04-30 21:25 48.99687 2.87442 9284 ft 277 kts 99°
2026-04-30 21:25 48.99396 2.90344 10371 ft 277 kts 99°
2026-04-30 21:25 48.99098 2.93317 11034 ft 293 kts 100°
2026-04-30 21:26 48.97803 2.99452 12471 ft 315 kts 125°
2026-04-30 21:26 48.96210 3.01752 13364 ft 321 kts 147°
2026-04-30 21:27 48.91811 3.02812 14983 ft 341 kts 192°
2026-04-30 21:27 48.89659 3.01204 15744 ft 352 kts 216°
2026-04-30 21:27 48.88076 2.98314 16505 ft 364 kts 240°
2026-04-30 21:28 48.86925 2.90749 18000 ft 378 kts 260°
2026-04-30 21:28 48.86547 2.86731 18754 ft 383 kts 260°
2026-04-30 21:28 48.85721 2.78645 20216 ft 391 kts 259°
2026-04-30 21:29 48.85284 2.74555 20957 ft 395 kts 258°
2026-04-30 21:29 48.83601 2.62247 23090 ft 402 kts 243°
2026-04-30 21:30 48.80605 2.55051 24414 ft 403 kts 230°
2026-04-30 21:31 48.75657 2.44592 26194 ft 414 kts 231°
2026-04-30 21:31 48.71839 2.38114 27357 ft 413 kts 214°
2026-04-30 21:32 48.66979 2.33480 28496 ft 416 kts 207°
2026-04-30 21:32 48.64478 2.31254 29067 ft 419 kts 207°
2026-04-30 21:32 48.61955 2.29001 29615 ft 422 kts 207°
2026-04-30 21:32 48.59418 2.26731 30118 ft 426 kts 207°
2026-04-30 21:33 48.56854 2.24435 30583 ft 429 kts 207°
2026-04-30 21:33 48.51481 2.20533 31414 ft 429 kts 193°
2026-04-30 21:33 48.48561 2.19640 31827 ft 428 kts 183°
2026-04-30 21:34 48.45588 2.19535 32252 ft 428 kts 175°
2026-04-30 21:34 48.39603 2.20046 33031 ft 434 kts 174°
2026-04-30 21:34 48.36583 2.20311 33397 ft 437 kts 174°
2026-04-30 21:35 48.33540 2.20570 33779 ft 439 kts 174°
2026-04-30 21:35 48.30479 2.20830 34158 ft 442 kts 174°
2026-04-30 21:35 48.27416 2.21336 34454 ft 443 kts 169°
2026-04-30 21:35 48.24357 2.22063 34724 ft 447 kts 169°
2026-04-30 21:36 48.21323 2.22809 34984 ft 450 kts 169°
2026-04-30 21:36 48.18176 2.23581 35147 ft 454 kts 169°
2026-04-30 21:37 48.08798 2.25107 35179 ft 458 kts 181°
2026-04-30 21:37 48.05625 2.24470 35185 ft 465 kts 191°
2026-04-30 21:37 47.99304 2.21649 35183 ft 479 kts 196°
2026-04-30 21:38 47.92998 2.18423 35179 ft 473 kts 197°
2026-04-30 21:38 47.89940 2.16849 35178 ft 456 kts 197°
2026-04-30 21:38 47.86989 2.15344 35178 ft 441 kts 197°
2026-04-30 21:39 47.84133 2.13905 35177 ft 425 kts 197°
2026-04-30 21:39 47.81382 2.12531 35177 ft 410 kts 196°
2026-04-30 21:39 47.78727 2.11213 35157 ft 395 kts 196°
2026-04-30 21:39 47.76165 2.09947 35161 ft 380 kts 197°
2026-04-30 21:40 47.73700 2.08733 35155 ft 366 kts 197°
2026-04-30 21:40 47.71374 2.07588 35154 ft 351 kts 197°
2026-04-30 21:40 47.69106 2.06472 35155 ft 333 kts 190°
2026-04-30 21:40 47.66942 2.05449 35161 ft 324 kts 196°
2026-04-30 21:41 47.62652 2.02900 35172 ft 341 kts 206°
2026-04-30 21:41 47.58449 1.99255 35177 ft 359 kts 210°
2026-04-30 21:42 47.54096 1.95229 35176 ft 378 kts 210°
2026-04-30 21:42 47.49512 1.90985 35177 ft 398 kts 210°
2026-04-30 21:43 47.45521 1.87322 35184 ft 415 kts 210°
2026-04-30 21:43 47.42182 1.84273 35186 ft 428 kts 210°
2026-04-30 21:43 47.39614 1.81934 35187 ft 439 kts 210°
2026-04-30 21:44 47.34300 1.77101 35188 ft 459 kts 210°
2026-04-30 21:44 47.28749 1.72066 35187 ft 478 kts 210°
2026-04-30 21:45 47.23024 1.66883 35184 ft 485 kts 210°
2026-04-30 21:45 47.17275 1.61688 35183 ft 485 kts 210°
2026-04-30 21:46 47.11517 1.56500 35184 ft 486 kts 210°
2026-04-30 21:46 47.06715 1.52186 35184 ft 486 kts 210°
2026-04-30 21:47 47.00002 1.46172 35183 ft 486 kts 210°
2026-04-30 21:47 46.95163 1.41847 35187 ft 486 kts 210°
2026-04-30 21:48 46.89383 1.36694 35184 ft 487 kts 210°
2026-04-30 21:48 46.83593 1.31544 35183 ft 487 kts 210°
2026-04-30 21:49 46.77800 1.26406 35182 ft 487 kts 210°
2026-04-30 21:49 46.72007 1.21280 35190 ft 487 kts 210°
2026-04-30 21:50 46.66201 1.16156 35184 ft 489 kts 210°
2026-04-30 21:50 46.60377 1.11029 35181 ft 489 kts 210°
2026-04-30 21:51 46.54551 1.05914 35174 ft 489 kts 210°
2026-04-30 21:51 46.48705 1.00900 35190 ft 488 kts 207°
2026-04-30 21:52 46.42642 0.96471 35187 ft 487 kts 205°
2026-04-30 21:52 46.36578 0.92205 35168 ft 487 kts 205°
2026-04-30 21:53 46.30502 0.87841 35178 ft 488 kts 206°
2026-04-30 21:53 46.24439 0.83425 35193 ft 488 kts 206°
2026-04-30 21:54 46.18379 0.79004 35175 ft 488 kts 206°
2026-04-30 21:54 46.12301 0.74584 35179 ft 491 kts 206°
2026-04-30 21:55 46.06193 0.70156 35184 ft 491 kts 206°
2026-04-30 21:55 46.00083 0.65739 35186 ft 491 kts 206°
2026-04-30 21:56 45.93971 0.61333 35185 ft 491 kts 207°
2026-04-30 21:56 45.87871 0.56945 35182 ft 490 kts 207°
2026-04-30 21:57 45.81810 0.52596 35184 ft 490 kts 207°
2026-04-30 21:57 45.75717 0.48235 35181 ft 490 kts 207°
2026-04-30 21:58 45.69662 0.43774 35193 ft 489 kts 208°
2026-04-30 21:58 45.63661 0.39191 35206 ft 489 kts 208°
2026-04-30 21:59 45.57636 0.34611 35179 ft 492 kts 208°
2026-04-30 22:00 45.48588 0.27811 35193 ft 487 kts 210°
2026-04-30 22:00 45.39588 0.21086 35195 ft 487 kts 209°
2026-04-30 22:01 45.33586 0.16615 35189 ft 487 kts 210°
2026-04-30 22:01 45.27589 0.12155 35185 ft 486 kts 210°
2026-04-30 22:02 45.21594 0.07707 35185 ft 486 kts 210°
2026-04-30 22:02 45.15597 0.03270 35183 ft 486 kts 211°
2026-04-30 22:03 45.09608 -0.01150 35174 ft 485 kts 211°
2026-04-30 22:03 45.03622 -0.05559 35178 ft 486 kts 211°
2026-04-30 22:04 44.97622 -0.09967 35169 ft 485 kts 211°
2026-04-30 22:05 44.88730 -0.16479 35179 ft 481 kts 211°
2026-04-30 22:05 44.82796 -0.20815 35177 ft 481 kts 211°
2026-04-30 22:06 44.76852 -0.25147 35176 ft 481 kts 211°
2026-04-30 22:06 44.67944 -0.31620 35174 ft 481 kts 211°
2026-04-30 22:07 44.61982 -0.35893 35176 ft 481 kts 210°
2026-04-30 22:07 44.55926 -0.39882 35173 ft 481 kts 208°
2026-04-30 22:08 44.49850 -0.43804 35173 ft 480 kts 208°
2026-04-30 22:08 44.43796 -0.47751 35170 ft 480 kts 209°
2026-04-30 22:09 44.37756 -0.51711 35169 ft 479 kts 209°
2026-04-30 22:09 44.31737 -0.55656 35170 ft 478 kts 209°
2026-04-30 22:10 44.25715 -0.59594 35170 ft 478 kts 209°
2026-04-30 22:10 44.19697 -0.63519 35175 ft 477 kts 208°
2026-04-30 22:11 44.10685 -0.69377 35178 ft 476 kts 208°
2026-04-30 22:12 44.04674 -0.73274 35179 ft 476 kts 208°
2026-04-30 22:12 43.98664 -0.77163 35173 ft 475 kts 208°
2026-04-30 22:13 43.92670 -0.81032 35171 ft 475 kts 208°
2026-04-30 22:13 43.86680 -0.84889 35171 ft 475 kts 208°
2026-04-30 22:14 43.80694 -0.88735 35158 ft 474 kts 208°
2026-04-30 22:14 43.74714 -0.92569 35164 ft 473 kts 208°
2026-04-30 22:15 43.68749 -0.96384 35184 ft 473 kts 208°
2026-04-30 22:15 43.62773 -1.00199 35184 ft 473 kts 208°
2026-04-30 22:16 43.56806 -1.04000 35159 ft 472 kts 207°
2026-04-30 22:17 43.44910 -1.11551 35156 ft 472 kts 207°
2026-04-30 22:17 43.36548 -1.18533 35162 ft 469 kts 217°
2026-04-30 22:18 43.28541 -1.26298 35161 ft 470 kts 217°
2026-04-30 22:19 43.20540 -1.34051 35161 ft 470 kts 217°
2026-04-30 22:20 43.12516 -1.41766 35164 ft 470 kts 217°
2026-04-30 22:20 43.04183 -1.48863 35161 ft 472 kts 210°
2026-04-30 22:21 42.98336 -1.52980 35159 ft 472 kts 208°
2026-04-30 22:21 42.92487 -1.57012 35158 ft 471 kts 208°
2026-04-30 22:22 42.86672 -1.61018 35151 ft 471 kts 208°
2026-04-30 22:22 42.80829 -1.65052 35158 ft 471 kts 208°
2026-04-30 22:23 42.74985 -1.69085 35157 ft 471 kts 208°
2026-04-30 22:23 42.69138 -1.73093 35157 ft 471 kts 208°
2026-04-30 22:24 42.63260 -1.77036 35154 ft 471 kts 207°
2026-04-30 22:24 42.57381 -1.80963 35142 ft 471 kts 207°
2026-04-30 22:25 42.51500 -1.84896 35137 ft 470 kts 207°
2026-04-30 22:25 42.45635 -1.88817 35130 ft 470 kts 207°
2026-04-30 22:26 42.36837 -1.94693 35135 ft 470 kts 207°
2026-04-30 22:27 42.30976 -1.98590 35139 ft 469 kts 207°
2026-04-30 22:27 42.22193 -2.04428 35140 ft 469 kts 207°
2026-04-30 22:28 42.13395 -2.10233 35136 ft 469 kts 207°
2026-04-30 22:29 42.01667 -2.17952 35142 ft 469 kts 207°
2026-04-30 22:31 41.81185 -2.31370 35149 ft 469 kts 206°
2026-04-30 22:32 41.66531 -2.40911 35146 ft 468 kts 206°
2026-04-30 22:33 41.52876 -2.49759 35131 ft 468 kts 206°
2026-04-30 22:35 41.38224 -2.59205 35141 ft 468 kts 206°
2026-04-30 22:36 41.24290 -2.70343 35141 ft 469 kts 214°
2026-04-30 22:37 41.13588 -2.80233 35142 ft 469 kts 214°
2026-04-30 22:38 41.02866 -2.90050 35137 ft 467 kts 214°
2026-04-30 22:39 40.94841 -2.97365 35141 ft 467 kts 214°
2026-04-30 22:40 40.78801 -3.11920 35131 ft 465 kts 214°
2026-04-30 22:41 40.65471 -3.23953 35138 ft 465 kts 214°
2026-04-30 22:43 40.49455 -3.38332 35116 ft 465 kts 214°
2026-04-30 22:44 40.38765 -3.47882 35122 ft 464 kts 214°
2026-04-30 22:45 40.22806 -3.62069 35125 ft 463 kts 214°
2026-04-30 22:47 40.06896 -3.76134 35116 ft 462 kts 214°
2026-04-30 22:48 39.96236 -3.85509 35121 ft 462 kts 214°
2026-04-30 22:49 39.80262 -3.99492 35139 ft 461 kts 214°
2026-04-30 22:51 39.64310 -4.13378 35139 ft 461 kts 214°
2026-04-30 22:52 39.56303 -4.20318 35136 ft 461 kts 214°
2026-04-30 22:53 39.45622 -4.29545 35134 ft 462 kts 214°
2026-04-30 22:53 39.37596 -4.36457 35136 ft 462 kts 214°
2026-04-30 22:55 39.24204 -4.47946 35128 ft 462 kts 214°
2026-04-30 22:56 39.13492 -4.57104 35130 ft 462 kts 214°
2026-04-30 22:57 39.00091 -4.68501 35123 ft 461 kts 214°
2026-04-30 22:58 38.89419 -4.77544 35119 ft 461 kts 214°
2026-04-30 22:59 38.73332 -4.91102 35118 ft 461 kts 213°